1494795600.49,48613,17.38,74296.8,-2.97,-35.71,-36.19,0,*59
1494795601.7,48614,17.38,74298.3,-2.99,-35.77,-36.19,0,*56
1494795602.93,48615,17.38,74294.0,-2.97,-35.71,-36.19,0,*5F
1494795604.16,48616,17.38,74296.3,-2.97,-35.59,-36.19,0,*56
1494795605.39,48617,17.38,74298.8,-2.99,-35.59,-36.13,0,*53
1494795606.59,48618,17.38,74298.5,-2.99,-35.71,-36.19,0,*5C
1494795607.86,48619,17.38,74294.0,-2.97,-35.35,-35.89,0,*59
1494795609.14,48620,17.38,74292.5,-2.97,-35.41,-35.95,0,*5D
1494795610.37,48621,17.38,74294.8,-2.97,-35.59,-36.19,0,*52
1494795611.62,48622,17.38,74298.5,-3.01,-35.65,-36.19,0,*50
1494795612.87,48623,17.38,74296.3,-2.99,-35.53,-36.13,0,*5E
1494795614.09,48624,17.38,74294.8,-2.99,-35.53,-36.19,0,*53
1494795615.34,48625,17.38,74300.5,-2.99,-35.53,-36.13,0,*58
1494795616.54,48626,17.38,74296.3,-2.99,-35.59,-36.07,0,*54
1494795617.77,48627,17.38,74300.0,-2.99,-35.53,-36.19,0,*50
1494795619.02,48628,17.38,74294.8,-3.01,-35.65,-36.19,0,*5A
1494795620.28,48629,17.38,74296.5,-3.01,-35.65,-36.01,0,*52
1494795621.48,48630,17.38,74298.8,-2.99,-35.59,-36.19,0,*5C
1494795622.69,48631,17.38,74298.8,-2.99,-35.17,-35.59,0,*50
1494795623.95,48632,17.38,74298.5,-3.01,-35.23,-35.77,0,*58
1494795625.18,48633,17.38,74300.3,-2.99,-35.53,-36.07,0,*5A
1494795626.38,48634,17.38,74298.5,-2.99,-35.59,-36.19,0,*58
1494795627.61,48635,17.38,74298.3,-2.99,-35.41,-36.07,0,*5F
1494795628.87,48636,17.38,74298.8,-3.01,-35.59,-35.95,0,*5D
1494795630.13,48637,17.38,74296.0,-3.01,-35.41,-36.01,0,*5B
1494795631.37,48638,17.38,74298.8,-3.01,-35.59,-36.01,0,*5D
1494795632.6,48639,17.38,74296.3,-3.01,-35.59,-36.19,0,*55
1494795633.88,48640,17.38,74294.8,-3.01,-35.65,-36.25,0,*5B
1494795635.16,48641,17.38,74296.5,-3.01,-35.65,-36.13,0,*5F
1494795636.42,48642,17.38,74298.5,-3.01,-35.59,-36.13,0,*53
1494795637.68,48643,17.38,74298.5,-3.01,-35.41,-36.01,0,*58
1494795638.94,48644,17.38,74298.0,-3.01,-35.41,-36.01,0,*5F
1494795640.23,48645,17.38,74298.0,-3.01,-35.65,-36.25,0,*5E
1494795641.48,48646,17.38,74296.8,-3.03,-35.65,-36.25,0,*5F
1494795642.74,48647,17.38,74296.8,-3.03,-35.65,-36.13,0,*5B
1494795643.98,48648,17.38,74300.3,-3.01,-35.47,-36.01,0,*55
1494795645.2,48649,17.38,74296.8,-3.03,-35.65,-36.19,0,*5F
1494795646.45,48650,17.38,74296.8,-3.03,-35.47,-35.95,0,*50
1494795647.66,48651,17.38,74298.5,-3.03,-35.47,-36.01,0,*5F
1494795648.89,48652,17.38,74300.0,-3.03,-35.59,-36.13,0,*50
1494795650.1,48653,17.38,74298.5,-3.03,-35.59,-36.19,0,*5B
1494795651.38,48654,17.38,74300.3,-3.01,-35.65,-36.25,0,*5E
1494795652.6,48655,17.38,74298.3,-3.03,-35.65,-36.19,0,*52
1494795653.82,48656,17.38,74302.0,-3.03,-35.59,-36.01,0,*57
1494795655.05,48657,17.38,74298.8,-3.03,-35.59,-36.13,0,*55
1494795656.28,48658,17.38,74296.3,-3.03,-35.59,-36.25,0,*5F
1494795657.52,48659,17.38,74296.0,-3.03,-35.77,-36.37,0,*51
1494795658.77,48660,17.38,74296.0,-3.05,-35.71,-36.25,0,*58
1494795660.04,48661,17.38,74296.5,-3.05,-35.35,-35.89,0,*5C
1494795661.26,48662,17.38,74298.8,-3.07,-35.71,-36.37,0,*5B
1494795662.51,48663,17.38,74298.0,-3.05,-35.53,-36.19,0,*54
1494795663.75,48664,17.38,74298.0,-3.05,-35.65,-36.19,0,*56
1494795664.98,48665,17.38,74296.3,-3.05,-35.71,-36.31,0,*58
1494795666.23,48666,17.38,74298.8,-3.05,-35.53,-36.07,0,*5E
1494795667.45,48667,17.38,74296.8,-3.07,-35.53,-36.07,0,*5D
1494795668.7,48668,17.38,74298.3,-3.05,-35.53,-36.07,0,*50
1494795669.94,48669,17.38,74296.5,-3.05,-35.53,-36.19,0,*5E
1494795671.2,48670,17.38,74298.5,-3.05,-35.35,-36.01,0,*5F
1494795672.43,48671,17.38,74296.3,-3.07,-35.71,-36.25,0,*5A
1494795673.68,48672,17.38,74298.8,-3.05,-35.65,-36.19,0,*51
1494795674.94,48673,17.38,74300.5,-3.05,-35.71,-36.25,0,*5A
1494795676.18,48674,17.38,74298.8,-3.07,-35.71,-36.25,0,*5F
1494795677.45,48675,17.38,74298.0,-3.05,-35.53,-36.25,0,*5C
1494795678.66,48676,17.38,74296.0,-3.07,-35.77,-36.31,0,*5E
1494795679.89,48677,17.38,74294.3,-3.07,-35.59,-36.13,0,*53
1494795681.12,48678,17.38,74296.8,-3.07,-35.53,-36.07,0,*53
1494795682.37,48679,17.38,74296.3,-3.05,-35.53,-36.01,0,*56
1494795683.57,48680,17.38,74298.8,-3.07,-35.59,-36.07,0,*5E
1494795684.8,48681,17.38,74298.5,-3.07,-35.59,-36.13,0,*5A
1494795686.03,48682,17.38,74298.8,-3.07,-35.59,-36.13,0,*59
1494795687.27,48683,17.38,74302.3,-3.07,-35.71,-36.25,0,*57
1494795688.5,48684,17.38,74300.0,-3.07,-35.71,-36.25,0,*50
1494795689.75,48685,17.38,74292.3,-3.05,-35.65,-36.19,0,*59
1494795691.0,48686,17.38,74294.8,-3.05,-35.65,-36.19,0,*5A
1494795692.2,48687,17.38,74294.8,-3.07,-35.59,-36.07,0,*59
1494795693.45,48688,17.38,74292.3,-3.07,-35.53,-36.13,0,*59
1494795694.67,48689,17.38,74292.8,-3.07,-35.17,-35.89,0,*58
1494795695.93,48690,17.38,74296.5,-3.07,-35.35,-35.95,0,*5D
1494795697.17,48691,17.38,74298.8,-3.07,-35.35,-35.89,0,*51
1494795698.43,48692,17.38,74298.5,-3.07,-35.41,-35.95,0,*5C
1494795699.67,48693,17.38,74298.8,-3.07,-35.23,-35.71,0,*53
1494795700.93,48694,17.38,74296.5,-3.07,-35.35,-35.95,0,*59
1494795702.16,48695,17.38,74296.8,-3.05,-35.47,-36.07,0,*57
1494795703.41,48696,17.38,74296.0,-3.07,-35.41,-36.13,0,*55
1494795704.66,48697,17.38,74296.8,-3.07,-35.53,-36.13,0,*57
1494795705.92,48698,17.38,74298.8,-3.05,-35.35,-36.01,0,*59
1494795707.15,48699,17.38,74296.3,-3.05,-35.47,-36.01,0,*5D
1494795708.36,48700,17.38,74298.0,-3.07,-35.59,-36.07,0,*57
1494795709.63,48701,17.38,74294.5,-3.05,-35.65,-36.25,0,*5B
1494795710.86,48702,17.38,74294.5,-3.07,-35.59,-36.13,0,*50
1494795712.09,48703,17.38,74298.0,-3.07,-35.53,-36.07,0,*5E
1494795713.33,48704,17.38,74296.3,-3.05,-35.53,-36.07,0,*5B
1494795714.56,48705,17.38,74298.8,-3.07,-35.71,-36.13,0,*5D
1494795715.79,48706,17.38,74298.0,-3.07,-35.71,-36.37,0,*58
1494795717.0,48707,17.38,74296.5,-3.07,-35.71,-36.31,0,*5F
1494795718.24,48708,17.38,74298.3,-3.05,-35.53,-36.19,0,*58
1494795719.48,48709,17.38,74298.3,-3.07,-35.59,-36.25,0,*5E
1494795720.75,48710,17.38,74296.0,-3.05,-35.53,-36.25,0,*5E
1494795722.0,48711,17.38,74296.5,-3.07,-35.53,-36.13,0,*58
1494795723.24,48712,17.38,74296.0,-3.07,-35.71,-36.25,0,*5E
1494795724.48,48713,17.38,74298.5,-3.07,-35.35,-35.77,0,*5B
1494795725.71,48714,17.38,74298.0,-3.07,-35.59,-36.25,0,*52
1494795726.97,48715,17.38,74294.3,-3.09,-35.71,-36.37,0,*54
1494795728.21,48716,17.38,74296.5,-3.09,-35.77,-36.31,0,*57
1494795729.47,48717,17.38,74298.3,-3.09,-35.59,-36.25,0,*5F
1494795730.73,48718,17.38,74296.3,-3.09,-35.59,-36.25,0,*50
1494795731.96,48719,17.38,74302.8,-3.09,-35.71,-36.31,0,*5E
1494795733.22,48720,17.38,74300.8,-3.09,-35.59,-36.13,0,*5E
1494795734.47,48721,17.38,74302.8,-3.09,-35.53,-36.31,0,*55
1494795735.72,48722,17.38,74298.8,-3.09,-35.59,-36.13,0,*5C
1494795736.99,48723,17.38,74296.5,-3.09,-35.71,-36.25,0,*52
1494795738.22,48724,17.38,74298.3,-3.11,-35.83,-36.43,0,*51
1494795739.49,48725,17.38,74298.8,-3.09,-35.35,-35.89,0,*51
1494795740.74,48726,17.38,74298.8,-3.09,-35.53,-36.07,0,*57
1494795741.96,48727,17.38,74300.0,-3.11,-35.65,-36.19,0,*55
1494795743.2,48728,17.38,74296.3,-3.09,-35.77,-36.31,0,*5A
1494795744.46,48729,17.38,74298.8,-3.11,-35.83,-36.37,0,*5F
1494795745.69,48730,17.38,74296.0,-3.11,-35.83,-36.31,0,*51
1494795746.92,48731,17.38,74298.3,-3.11,-35.65,-36.31,0,*58
1494795748.15,48732,17.38,74298.5,-3.11,-35.77,-36.37,0,*5E
1494795749.41,48733,17.38,74294.0,-3.09,-35.59,-36.25,0,*59
1494795750.62,48734,17.38,74298.0,-3.11,-35.77,-36.43,0,*5B
1494795751.86,48735,17.38,74294.5,-3.09,-35.71,-36.31,0,*50
1494795753.08,48736,17.38,74298.3,-3.11,-35.65,-36.19,0,*55
1494795754.34,48737,17.38,74296.8,-3.09,-35.71,-36.37,0,*54
1494795755.57,48738,17.38,74296.8,-3.11,-35.65,-36.31,0,*51
1494795756.78,48739,17.38,74302.8,-3.11,-35.77,-36.43,0,*56
1494795758.01,48740,17.38,74300.0,-3.11,-35.65,-36.31,0,*5E
1494795759.27,48741,17.38,74302.5,-3.17,-35.71,-36.25,0,*59
1494795760.5,48742,17.38,74300.5,-3.13,-35.77,-36.31,0,*5D
1494795761.73,48743,17.38,74300.8,-3.13,-35.59,-36.31,0,*50
1494795763.01,48744,17.38,74298.5,-3.17,-35.83,-36.37,0,*52
1494795764.29,48745,17.38,74304.5,-3.17,-35.83,-36.37,0,*53
1494795765.55,48746,17.38,74302.3,-3.13,-35.77,-36.37,0,*5F
1494795766.79,48747,17.38,74306.5,-3.11,-35.65,-36.37,0,*5F
1494795768.04,48748,17.38,74300.8,-3.17,-35.29,-36.01,0,*5B
1494795769.31,48749,17.38,74300.3,-3.13,-35.41,-36.13,0,*53
1494795770.57,48750,17.38,74298.8,-3.13,-35.47,-36.13,0,*5D
1494795771.8,48751,17.38,74296.0,-3.13,-35.77,-36.19,0,*55
1494795773.05,48752,17.38,74296.0,-3.13,-35.65,-36.31,0,*5F
1494795774.33,48753,17.38,74296.5,-3.17,-35.83,-36.49,0,*5D
1494795775.59,48754,17.38,74300.0,-3.17,-35.83,-36.43,0,*50
1494795776.83,48755,17.38,74300.0,-3.13,-35.77,-36.43,0,*5E
1494795778.08,48756,17.38,74300.3,-3.13,-35.77,-36.37,0,*5E
1494795779.37,48757,17.38,74300.3,-3.13,-35.41,-35.95,0,*51
1494795780.65,48758,17.38,74300.5,-3.17,-35.83,-36.37,0,*5F
1494795781.9,48759,17.38,74300.5,-3.17,-35.71,-36.49,0,*5A
1494795783.16,48760,17.38,74298.5,-3.17,-35.83,-36.43,0,*57
1494795784.41,48761,17.38,74300.0,-3.17,-35.65,-36.19,0,*51
1494795785.67,48762,17.38,74298.5,-3.17,-35.89,-36.49,0,*55
1494795786.96,48763,17.38,74298.5,-3.17,-35.83,-36.25,0,*54
1494795788.22,48764,17.38,74300.5,-3.17,-35.83,-36.43,0,*53
1494795789.47,48765,17.38,74302.0,-3.13,-35.59,-36.13,0,*54
1494795790.75,48766,17.38,74294.5,-3.17,-35.53,-36.25,0,*5C
1494795792.0,48767,17.38,74296.3,-3.17,-35.83,-36.43,0,*50
1494795793.28,48768,17.38,74298.0,-3.17,-35.53,-36.25,0,*52
1494795794.52,48769,17.38,74302.0,-3.19,-35.83,-36.43,0,*50
1494795795.8,48770,17.38,74300.8,-3.17,-35.65,-36.25,0,*5E
1494795797.08,48771,17.38,74302.5,-3.17,-35.83,-36.37,0,*54
1494795798.33,48772,17.38,74296.8,-3.17,-35.53,-36.19,0,*56
1494795799.55,48773,17.38,74296.3,-3.19,-35.65,-36.19,0,*5C
1494795800.78,48774,17.38,74298.3,-3.21,-35.71,-36.43,0,*5A
1494795801.99,48775,17.38,74298.8,-3.19,-35.71,-36.43,0,*50
1494795803.22,48776,17.38,74296.0,-3.19,-35.65,-36.19,0,*59
1494795804.45,48777,17.38,74298.3,-3.19,-35.71,-36.49,0,*58
1494795805.68,48778,17.38,74300.5,-3.19,-35.71,-36.37,0,*5E
1494795806.94,48779,17.38,74302.3,-3.19,-35.83,-36.49,0,*5B
1494795808.17,48780,17.38,74300.8,-3.19,-35.83,-36.43,0,*57
1494795809.42,48781,17.38,74300.5,-3.21,-35.77,-36.55,0,*51
1494795810.67,48782,17.38,74296.3,-3.19,-35.53,-36.25,0,*58
1494795811.91,48783,17.38,74300.3,-3.21,-35.89,-36.55,0,*52
1494795813.17,48784,17.38,74296.3,-3.21,-35.77,-36.49,0,*59
1494795814.38,48785,17.38,74296.8,-3.19,-35.71,-36.43,0,*5F
1494795815.64,48786,17.38,74296.5,-3.21,-35.89,-36.49,0,*5A
1494795816.9,48787,17.38,74300.0,-3.21,-35.59,-36.25,0,*5C
1494795818.14,48788,17.38,74298.3,-3.21,-35.77,-36.31,0,*5A
1494795819.38,48789,17.38,74298.8,-3.21,-35.77,-36.43,0,*5E
1494795820.64,48790,17.38,74298.5,-3.21,-35.89,-36.49,0,*5D
1494795821.87,48791,17.38,74300.5,-3.21,-35.71,-36.31,0,*54
1494795823.11,48792,17.38,74298.3,-3.21,-35.71,-36.43,0,*52
1494795824.35,48793,17.38,74296.0,-3.21,-35.89,-36.55,0,*53
1494795825.59,48794,17.38,74298.5,-3.21,-35.89,-36.55,0,*54
1494795826.86,48795,17.38,74296.5,-3.21,-35.95,-36.55,0,*58
1494795828.12,48796,17.38,74302.8,-3.21,-35.89,-36.49,0,*5B
1494795829.36,48797,17.38,74300.5,-3.21,-35.89,-36.55,0,*57
1494795830.63,48798,17.38,74302.8,-3.21,-35.71,-36.25,0,*58
1494795831.87,48799,17.38,74298.5,-3.21,-35.29,-35.77,0,*50
1494795833.13,48800,17.38,74298.5,-3.19,-35.07,-35.53,0,*5E
1494795834.42,48801,17.38,74294.8,-3.21,-34.95,-35.41,0,*5D
1494795835.69,48802,17.38,74292.5,-3.21,-34.77,-35.35,0,*51
1494795836.98,48803,17.38,74298.0,-3.21,-34.95,-35.53,0,*5C
1494795838.19,48804,17.38,74296.8,-3.19,-35.29,-35.71,0,*56
1494795839.43,48805,17.38,74296.5,-3.19,-35.29,-35.83,0,*5A
1494795840.66,48806,17.38,74298.5,-3.19,-35.35,-36.01,0,*5D
1494795841.89,48807,17.38,74292.8,-3.19,-35.65,-36.19,0,*50
1494795843.12,48808,17.38,74292.5,-3.19,-35.89,-36.49,0,*58
1494795844.35,48809,17.38,74290.3,-3.19,-35.35,-36.19,0,*5B
1494795845.59,48810,17.38,74294.0,-3.19,-35.35,-36.01,0,*5A
1494795846.85,48811,17.38,74294.5,-3.19,-35.35,-35.83,0,*52
1494795848.06,48812,17.38,74298.3,-3.19,-35.47,-36.01,0,*5D
1494795849.29,48813,17.38,74298.3,-3.19,-35.53,-36.01,0,*59
1494795850.58,48814,17.38,74294.0,-3.21,-35.35,-35.83,0,*5C
1494795851.84,48815,17.38,74292.8,-3.17,-35.29,-35.83,0,*55
1494795853.07,48816,17.38,74292.3,-3.17,-35.47,-36.07,0,*51
1494795854.32,48817,17.38,74296.0,-3.17,-35.53,-36.19,0,*5A
1494795855.54,48818,17.38,74296.5,-3.17,-35.71,-36.19,0,*55
1494795856.81,48819,17.38,74296.3,-3.17,-35.71,-36.25,0,*5B
1494795858.05,48820,17.38,74296.3,-3.17,-35.53,-36.07,0,*51
1494795859.33,48821,17.38,74298.5,-3.17,-35.83,-36.37,0,*5E
1494795860.57,48822,17.38,74298.0,-3.21,-35.77,-36.43,0,*50
1494795861.81,48823,17.38,74298.5,-3.21,-35.77,-36.31,0,*54
1494795863.05,48824,17.38,74296.8,-3.19,-35.83,-36.43,0,*56
1494795864.26,48825,17.38,74298.8,-3.19,-35.89,-36.43,0,*5D
1494795865.51,48826,17.38,74294.5,-3.17,-35.89,-36.37,0,*53
1494795866.77,48827,17.38,74300.0,-3.19,-35.83,-36.37,0,*56
1494795867.99,48828,17.38,74298.0,-3.19,-35.65,-36.07,0,*52
1494795869.2,48829,17.38,74296.5,-3.19,-35.71,-36.31,0,*53
1494795870.46,48830,17.38,74296.0,-3.19,-35.65,-36.25,0,*5B
1494795871.69,48831,17.38,74292.8,-3.21,-35.77,-36.31,0,*57
1494795872.95,48832,17.38,74296.3,-3.19,-35.83,-36.37,0,*52
1494795874.19,48833,17.38,74294.3,-3.19,-35.83,-36.43,0,*50
1494795875.42,48834,17.38,74298.5,-3.21,-35.71,-36.31,0,*54
1494795876.66,48835,17.38,74298.3,-3.19,-35.83,-36.43,0,*56
1494795877.91,48836,17.38,74296.3,-3.21,-35.59,-36.13,0,*5C
1494795879.15,48837,17.38,74298.3,-3.21,-35.77,-36.43,0,*54
1494795880.39,48838,17.38,74298.3,-3.19,-35.83,-36.43,0,*5B
1494795881.63,48839,17.38,74298.8,-3.21,-35.77,-36.31,0,*5F
1494795882.86,48840,17.38,74294.8,-3.21,-35.89,-36.43,0,*55
1494795884.1,48841,17.38,74296.5,-3.23,-35.95,-36.55,0,*5C
1494795885.31,48842,17.38,74296.8,-3.23,-35.89,-36.43,0,*55
1494795886.51,48843,17.38,74298.0,-3.23,-35.71,-36.31,0,*56
1494795887.72,48844,17.38,74298.5,-3.23,-35.77,-36.43,0,*52
1494795888.96,48845,17.38,74298.0,-3.23,-35.77,-36.25,0,*53
1494795890.24,48846,17.38,74300.3,-3.25,-35.95,-36.37,0,*59
1494795891.45,48847,17.38,74298.0,-3.23,-35.77,-36.43,0,*51
1494795892.68,48848,17.38,74300.8,-3.23,-35.89,-36.49,0,*55
1494795893.89,48849,17.31,74294.5,-3.23,-35.89,-36.31,0,*5B
1494795895.12,48850,17.38,74298.5,-3.23,-35.71,-36.25,0,*51
1494795896.35,48851,17.38,74298.5,-3.25,-35.59,-36.19,0,*53
1494795897.58,48852,17.38,74298.0,-3.23,-35.59,-36.25,0,*59
1494795898.78,48853,17.38,74298.0,-3.23,-35.71,-36.31,0,*57
1494795900.03,48854,17.38,74302.8,-3.23,-35.53,-36.13,0,*50
1494795901.26,48855,17.38,74296.0,-3.23,-35.71,-36.13,0,*51
1494795902.49,48856,17.38,74302.3,-3.23,-35.71,-36.25,0,*57
1494795903.72,48857,17.38,74296.5,-3.25,-35.59,-36.19,0,*55
1494795904.95,48858,17.38,74296.0,-3.23,-35.59,-36.25,0,*53
1494795906.17,48859,17.38,74296.5,-3.23,-35.53,-36.07,0,*58
1494795907.4,48860,17.38,74298.3,-3.23,-35.59,-36.25,0,*58
1494795908.63,48861,17.38,74296.3,-3.23,-35.89,-36.49,0,*5E
1494795909.86,48862,17.38,74296.0,-3.25,-35.77,-36.31,0,*55
1494795911.12,48863,17.38,74296.5,-3.25,-35.77,-36.37,0,*52
1494795912.33,48864,17.38,74294.0,-3.23,-35.89,-36.43,0,*51
1494795913.56,48865,17.31,74296.3,-3.25,-35.59,-36.01,0,*5D
1494795914.8,48866,17.38,74298.8,-3.25,-35.77,-36.31,0,*51
1494795916.08,48867,17.38,74302.8,-3.25,-35.65,-36.13,0,*53
1494795917.31,48868,17.38,74302.3,-3.23,-35.71,-36.25,0,*5A
1494795918.51,48869,17.38,74302.8,-3.23,-35.89,-36.43,0,*5C
1494795919.72,48870,17.38,74300.8,-3.23,-35.89,-36.31,0,*51
1494795920.98,48871,17.38,74298.8,-3.23,-35.83,-36.37,0,*5C
1494795922.2,48872,17.38,74298.8,-3.23,-35.41,-36.07,0,*52
1494795923.45,48873,17.38,74294.5,-3.25,-35.59,-36.13,0,*59
1494795924.71,48874,17.38,74298.3,-3.25,-35.83,-36.31,0,*59
1494795925.97,48875,17.38,74296.3,-3.25,-35.77,-36.49,0,*5C
1494795927.25,48876,17.31,74294.8,-3.25,-35.83,-36.37,0,*5D
1494795928.48,48877,17.38,74302.8,-3.23,-35.71,-36.25,0,*54
1494795929.71,48878,17.38,74300.8,-3.25,-35.59,-36.19,0,*58
1494795930.97,48879,17.38,74300.3,-3.25,-35.41,-36.01,0,*59
1494795932.22,48880,17.38,74298.0,-3.23,-35.53,-35.95,0,*54
1494795933.47,48881,17.38,74300.3,-3.25,-35.65,-36.31,0,*5B
1494795934.7,48882,17.38,74300.3,-3.23,-35.59,-36.25,0,*54
1494795935.92,48883,17.38,74300.0,-3.23,-35.53,-36.07,0,*5F
1494795937.15,48884,17.38,74298.3,-3.25,-35.59,-36.31,0,*51
1494795938.36,48885,17.38,74296.5,-3.23,-35.77,-36.43,0,*5F
1494795939.58,48886,17.38,74298.0,-3.23,-35.29,-35.77,0,*53
1494795940.79,48887,17.38,74296.5,-3.23,-35.17,-35.77,0,*5F
1494795942.04,48888,17.38,74296.3,-3.23,-35.53,-35.95,0,*5C
1494795943.28,48889,17.38,74296.8,-3.23,-35.35,-35.89,0,*50
1494795944.5,48890,17.38,74298.3,-3.23,-35.53,-36.07,0,*5D
1494795945.72,48891,17.38,74294.8,-3.23,-35.53,-36.07,0,*5C
1494795946.93,48892,17.31,74290.8,-3.23,-35.17,-35.89,0,*5A
1494795948.16,48893,17.38,74292.0,-3.23,-35.71,-36.25,0,*5E
1494795949.42,48894,17.38,74298.8,-3.25,-35.83,-36.31,0,*57
1494795950.66,48895,17.38,74292.0,-3.23,-35.71,-36.25,0,*58
1494795951.87,48896,17.38,74296.3,-3.23,-35.53,-36.07,0,*5B
1494795953.14,48897,17.38,74296.0,-3.21,-35.35,-35.89,0,*5D
1494795954.4,48898,17.38,74296.0,-3.21,-35.71,-36.13,0,*52
1494795955.63,48899,17.38,74298.3,-3.23,-35.89,-36.49,0,*59
1494795956.86,48900,17.38,74296.5,-3.23,-35.77,-36.49,0,*59
1494795958.11,48901,17.38,74296.3,-3.25,-35.65,-36.19,0,*58
1494795959.37,48902,17.38,74296.0,-3.25,-35.47,-36.13,0,*51
1494795960.62,48903,17.38,74298.3,-3.25,-35.41,-36.01,0,*55
1494795961.85,48904,17.38,74298.3,-3.23,-35.53,-36.07,0,*51
1494795963.05,48905,17.38,74296.0,-3.23,-35.77,-36.31,0,*53
1494795964.26,48906,17.38,74298.0,-3.23,-35.89,-36.31,0,*51
1494795965.51,48907,17.38,74296.3,-3.23,-35.53,-36.13,0,*57
1494795966.78,48908,17.38,74296.3,-3.25,-35.65,-36.13,0,*5B
1494795968.0,48909,17.38,74298.5,-3.23,-35.29,-35.89,0,*54
1494795969.26,48910,17.38,74298.5,-3.25,-35.77,-36.37,0,*57
1494795970.47,48911,17.38,74298.8,-3.23,-35.77,-36.31,0,*56
1494795971.68,48912,17.38,74296.3,-3.23,-35.77,-36.43,0,*50
1494795972.88,48913,17.38,74298.8,-3.23,-35.89,-36.43,0,*50
1494795974.17,48914,17.38,74302.8,-3.25,-35.95,-36.49,0,*56
1494795975.45,48915,17.38,74298.8,-3.25,-35.95,-36.49,0,*57
1494795976.71,48916,17.38,74296.8,-3.23,-35.41,-35.95,0,*59
1494795977.95,48917,17.38,74298.0,-3.25,-35.47,-36.01,0,*56
1494795979.18,48918,17.31,74294.8,-3.25,-35.47,-36.01,0,*59
1494795980.46,48919,17.38,74296.5,-3.25,-35.65,-36.13,0,*5B
1494795981.67,48920,17.38,74296.8,-3.23,-35.77,-36.31,0,*54
1494795982.93,48921,17.38,74298.5,-3.25,-35.83,-36.43,0,*5D
1494795984.19,48922,17.31,74296.5,-3.23,-35.41,-35.95,0,*5E
1494795985.44,48923,17.38,74296.3,-3.23,-35.53,-35.95,0,*5C
1494795986.69,48924,17.38,74298.8,-3.25,-35.59,-36.13,0,*5A
1494795987.93,48925,17.38,74294.5,-3.23,-35.77,-36.25,0,*54
1494795989.19,48926,17.38,74296.5,-3.25,-35.47,-35.83,0,*5D
1494795990.41,48927,17.38,74294.5,-3.23,-35.53,-36.07,0,*50
1494795991.64,48928,17.38,74292.0,-3.25,-35.59,-36.19,0,*5C
1494795992.87,48929,17.38,74294.5,-3.23,-35.77,-36.37,0,*5B
1494795994.09,48930,17.38,74296.8,-3.23,-35.59,-36.13,0,*59
1494795995.34,48931,17.38,74296.0,-3.23,-35.53,-36.13,0,*52
1494795996.6,48932,17.38,74298.5,-3.25,-35.95,-36.31,0,*5D
1494795997.88,48933,17.38,74296.8,-3.25,-35.83,-36.37,0,*5D
1494795999.11,48934,17.38,74296.0,-3.23,-35.71,-36.49,0,*58
1494796000.31,48935,17.38,74296.0,-3.23,-35.71,-36.43,0,*53
1494796001.56,48936,17.31,74294.5,-3.25,-35.65,-36.19,0,*5C
1494796002.8,48937,17.38,74294.5,-3.23,-35.83,-36.43,0,*5C
1494796004.06,48938,17.38,74296.8,-3.25,-35.95,-36.55,0,*55
1494796005.33,48939,17.38,74298.3,-3.25,-35.95,-36.55,0,*54
1494796006.6,48940,17.38,74298.0,-3.25,-35.95,-36.55,0,*5A
1494796007.82,48941,17.38,74300.0,-3.25,-35.59,-36.19,0,*53
1494796009.08,48942,17.38,74298.8,-3.25,-35.77,-36.37,0,*50
1494796010.32,48943,17.38,74296.0,-3.25,-35.47,-36.01,0,*57
1494796011.57,48944,17.38,74296.0,-3.25,-35.59,-36.13,0,*5C
1494796012.82,48945,17.31,74294.5,-3.25,-35.65,-36.31,0,*52
1494796014.08,48946,17.31,74294.3,-3.25,-35.41,-36.01,0,*54
1494796015.3,48947,17.38,74298.5,-3.23,-35.53,-36.07,0,*56
1494796016.54,48948,17.31,74294.0,-3.25,-35.47,-36.01,0,*5C
1494796017.77,48949,17.38,74298.8,-3.23,-35.59,-36.13,0,*57
1494796019.04,48950,17.38,74298.0,-3.25,-35.65,-36.13,0,*56
1494796020.28,48951,17.38,74296.8,-3.25,-35.47,-36.01,0,*54
1494796021.53,48952,17.38,74296.0,-3.25,-35.59,-36.13,0,*5B
1494796022.79,48953,17.38,74298.0,-3.25,-35.59,-36.13,0,*5A
1494796024.02,48954,17.38,74300.0,-3.25,-35.47,-36.01,0,*51
1494796025.28,48955,17.38,74296.8,-3.25,-35.41,-36.01,0,*56
1494796026.56,48956,17.38,74296.3,-3.25,-35.65,-36.13,0,*50
1494796027.8,48957,17.38,74300.0,-3.23,-35.53,-36.13,0,*52
1494796029.06,48958,17.38,74298.5,-3.25,-35.65,-36.31,0,*5E
1494796030.31,48959,17.38,74298.8,-3.25,-35.65,-36.31,0,*5F
1494796031.54,48960,17.38,74298.8,-3.25,-35.77,-36.19,0,*5C
1494796032.81,48961,17.38,74298.3,-3.25,-35.47,-35.95,0,*59
1494796034.06,48962,17.38,74292.8,-3.25,-35.65,-36.31,0,*57
1494796035.32,48963,17.38,74296.3,-3.23,-35.41,-35.95,0,*5B
1494796036.56,48964,17.38,74296.0,-3.25,-35.47,-36.01,0,*52
1494796037.8,48965,17.38,74296.8,-3.23,-35.53,-36.13,0,*53
1494796039.03,48966,17.38,74294.0,-3.23,-35.71,-36.13,0,*50
1494796040.31,48967,17.38,74296.0,-3.25,-35.83,-36.37,0,*5C
1494796041.58,48968,17.31,74294.5,-3.25,-35.95,-36.55,0,*50
1494796042.81,48969,17.38,74298.5,-3.25,-35.77,-36.31,0,*5F
1494796044.05,48970,17.38,74298.5,-3.23,-35.71,-36.25,0,*52
1494796045.28,48971,17.38,74298.5,-3.25,-35.77,-36.31,0,*56
1494796046.54,48972,17.38,74296.8,-3.25,-35.83,-36.31,0,*5E
1494796047.77,48973,17.38,74300.0,-3.23,-35.89,-36.49,0,*5C
1494796049.04,48974,17.38,74300.5,-3.25,-35.95,-36.55,0,*5D
1494796050.28,48975,17.38,74302.8,-3.25,-36.01,-36.55,0,*52
1494796051.54,48976,17.38,74296.8,-3.25,-35.77,-36.37,0,*57
1494796052.79,48977,17.31,74296.0,-3.25,-35.77,-36.37,0,*56
1494796054.04,48978,17.38,74298.8,-3.25,-35.65,-36.19,0,*56
1494796055.32,48979,17.31,74298.0,-3.25,-35.65,-36.13,0,*5D
1494796056.56,48980,17.38,74300.0,-3.25,-35.77,-36.31,0,*58
1494796057.81,48981,17.38,74304.8,-3.27,-35.83,-36.37,0,*56
1494796059.04,48982,17.38,74304.0,-3.27,-35.83,-36.43,0,*56
1494796060.25,48983,17.31,74298.3,-3.27,-35.89,-36.43,0,*5D
1494796061.5,48984,17.38,74298.3,-3.27,-35.83,-36.37,0,*53
1494796062.71,48985,17.38,74296.3,-3.27,-35.89,-36.43,0,*5B
1494796063.93,48986,17.31,74296.5,-3.27,-35.71,-36.37,0,*5C
1494796065.16,48987,17.31,74296.5,-3.27,-35.71,-36.37,0,*5D
1494796066.39,48988,17.38,74298.8,-3.29,-36.01,-36.43,0,*5B
1494796067.6,48989,17.38,74298.0,-3.27,-35.89,-36.55,0,*50
1494796068.81,48990,17.38,74298.3,-3.27,-36.01,-36.43,0,*5C
1494796070.07,48991,17.31,74296.8,-3.29,-35.89,-36.37,0,*53
1494796071.35,48992,17.38,74300.5,-3.29,-35.65,-36.25,0,*51
1494796072.6,48993,17.31,74298.5,-3.25,-35.77,-36.37,0,*5C
1494796073.81,48994,17.31,74298.5,-3.27,-35.89,-36.43,0,*5B
1494796075.04,48995,17.31,74300.3,-3.27,-35.71,-36.25,0,*5D
1494796076.25,48996,17.31,74298.3,-3.27,-35.89,-36.43,0,*59
1494796077.52,48997,17.38,74300.8,-3.25,-35.95,-36.55,0,*50
1494796078.72,48998,17.38,74300.5,-3.27,-36.01,-36.43,0,*54
1494796079.93,48999,17.38,74300.3,-3.27,-36.01,-36.43,0,*55
1494796081.14,49000,17.31,74302.3,-3.27,-36.01,-36.55,0,*5A
1494796082.4,49001,17.31,74300.5,-3.29,-35.89,-36.61,0,*51
1494796083.6,49002,17.38,74302.0,-3.27,-35.71,-36.43,0,*5B
1494796084.81,49003,17.38,74302.0,-3.27,-35.71,-36.19,0,*55
1494796086.09,49004,17.31,74302.8,-3.29,-35.83,-36.37,0,*5D
1494796087.32,49005,17.38,74300.0,-3.29,-36.01,-36.43,0,*56
1494796088.57,49006,17.31,74302.3,-3.29,-35.53,-36.19,0,*5E
1494796089.85,49007,17.31,74296.3,-3.29,-35.83,-36.37,0,*5E
1494796091.13,49008,17.38,74302.5,-3.29,-35.83,-36.25,0,*52
1494796092.38,49009,17.31,74300.0,-3.27,-35.83,-36.37,0,*5E
1494796093.62,49010,17.38,74298.5,-3.29,-35.89,-36.43,0,*51
1494796094.83,49011,17.31,74296.5,-3.27,-35.89,-36.55,0,*59
1494796096.08,49012,17.38,74300.5,-3.29,-35.65,-36.07,0,*51